Regional Weather Roundup
Issued by NWS

Home | Current Version | Previous Version | Graphics & Text | Print | Product List | Glossary On
Versions: 1 2 3 4 5 6 7 8 9 10 11 12 13 14 15 16 17 18 19 20 21 22 23 24 25 26 27 28 29 30 31 32 33 34 35 36 37 38 39 40 41 42 43 44 45 46 47 48 49 50
000
ASUS43 KOAX 292302
RWRNE

WEATHER ROUNDUP FOR NEBRASKA
NATIONAL WEATHER SERVICE OMAHA NE
600 PM CDT FRI AUG 29 2014

NOTES: SATELLITE DATA IS BEING USED TO AUGMENT CLOUD COVER ABOVE
       12000 FEET.
       "FAIR" INDICATES FEW OR NO CLOUDS BELOW 12,000 FEET WITH NO
       SIGNIFICANT WEATHER AND/OR OBSTRUCTIONS TO VISIBILITY.

  * THESE STATIONS DO NOT REPORT WEATHER SUCH AS RAIN...SNOW OR FOG.

NEZ001>004-019>022-054>056-300000-
NEBRASKA PANHANDLE

CITY           SKY/WX    TMP DP  RH WIND       PRES   REMARKS
SCOTTSBLUFF    PTSUNNY   82  53  36 E8        30.00S
ALLIANCE       SUNNY     77  53  43 NE12      30.01S
CHADRON        MOSUNNY   75  56  51 NE7       29.99S
KIMBALL        SUNNY     76  44  32 NW10      30.04S
SIDNEY         MOSUNNY   80  48  32 N13       30.02S
$$

NEZ057>060-069>072-079>082-300000-
SOUTHWEST NEBRASKA

CITY           SKY/WX    TMP DP  RH WIND       PRES   REMARKS
NORTH PLATTE   PTSUNNY   80  58  46 NW5       29.88R
IMPERIAL       MOSUNNY   84  52  33 N12       29.93S
LEXINGTON      SUNNY     81  62  51 NE5       29.86S
MCCOOK         MOSUNNY   87  51  28 NE13      29.88S
OGALLALA       CLOUDY    82  53  35 N14       29.94R
$$

NEZ005>010-023>029-035>040-094-300000-
NORTH CENTRAL NEBRASKA

CITY           SKY/WX    TMP DP  RH WIND       PRES   REMARKS
VALENTINE      MOSUNNY   77  59  53 N14G25    29.91R
BROKEN BOW     MOSUNNY   83  61  47 N9        29.85S
O`NEILL        MOSUNNY   78  68  70 N6        29.83R
ORD            SUNNY     79  63  57 N13       29.81F
THEDFORD       PTSUNNY   83  61  47 N13G22    29.90S
$$

NEZ041-046>049-061>064-073>077-083>087-300000-
SOUTH CENTRAL NEBRASKA

CITY           SKY/WX    TMP DP  RH WIND       PRES   REMARKS
GRAND ISLAND   PTSUNNY   78  66  66 W7        29.82F
AURORA         CLOUDY    70  67  89 W3        29.81R
HASTINGS       MOSUNNY   78  62  57 W3        29.82F
HEBRON         MOSUNNY   80  65  61 W8        29.81S
HOLDREGE       SUNNY     81  56  42 CALM      29.85F
KEARNEY *      SUNNY     79  66  65 NE3       29.84F
$$

NEZ011>018-030>034-042>045-300000-
NORTHEAST NEBRASKA

CITY           SKY/WX    TMP DP  RH WIND       PRES   REMARKS
NORFOLK        CLOUDY    75  67  76 W10       29.79R
ALBION         CLOUDY    73  66  78 NW8       29.81S
BLAIR          CLOUDY    71  68  91 CALM      29.78F
FREMONT        CLOUDY    74  65  73 SW3       29.79R
TEKAMAH        LGT RAIN  69  67  93 E5        29.78S
WAYNE          CLOUDY    73  67  80 CALM      29.79R
$$

NEZ050>053-065>068-078-088>093-300000-
SOUTHEAST NEBRASKA

CITY           SKY/WX    TMP DP  RH WIND       PRES   REMARKS
LINCOLN        CLOUDY    71  66  84 SE3       29.80S
OMAHA EPPLEY   LGT RAIN  70  67  90 SE5       29.78F
BEATRICE       CLOUDY    74  69  86 S7        29.78F
FALLS CITY     PTSUNNY   82  68  62 SW6       29.78R
NEBRASKA CITY  PTSUNNY   74  68  80 CALM      29.80S
PLATTSMOUTH    RAIN      71  67  85 S7        29.79S
$$

NEZ044-045-051>053-067-300000-
OMAHA AREA

CITY           SKY/WX    TMP DP  RH WIND       PRES   REMARKS
OMAHA EPPLEY   LGT RAIN  70  67  90 SE5       29.78F
BLAIR          CLOUDY    71  68  91 CALM      29.78F
FREMONT        CLOUDY    74  65  73 SW3       29.79R
MILLARD        CLOUDY    73  68  84 NW5       29.78F
OFFUTT AFB     CLOUDY    70  70 100 E5        29.78F
PLATTSMOUTH    RAIN      71  67  85 S7        29.79S
WAHOO          MOCLDY    73  64  73 SW7       29.80R
$$


USA.gov is the U.S. government's official web portal to all federal, state and local government web resources and services.